map of GOT home
GOT - Airport
Location
City:  Göteborg, Västra Götalands län, Sweden
Near (Alt.):Gothenburg
Name:Landvetter
ICAO:ESGG
IATA:GOT

Details
Type:Airport (Aerodrome, Airfield)
Use:Public/Civil, International (customs port of entry)
Latitude:57°39'46"N (57.662836)
Longitude:12°16'47"E (12.279819)
Datum:WGS 1984
Elevation:506 ft (154 m)
Variation:3.89°E (WMM2015 magnetic declination)
0.16° annual change
Runways:1
Longest:10823 × 148 ft (3299 × 45 m), paved

Time
Time Zone:UTC+1 (DST+2)
Local Time:

Weather
METAR:ESGG 240750Z 15007KT 9999 OVC011 M05/M07 Q1013 R21/31//95
TAF:ESGG 240530Z 2406/2506 13006KT 9999 BKN013
BECMG 2406/2408 CAVOK= TAF ESKN 240530Z 2406/2506 VRB02KT 8000 NSC PROB40 2406/2411 3000 BR

Related Locations
Nearby:
Farthest:CHT: 11402 mi / 18349 km
Waitangi [Tuuta], CIT, NZ

Find:

   beyond  
but within

Other Information
Maps:
NOTAMs:
Links:
Sources:

  
  • flag of Sweden
  

Sectional Chart

Flight Planning
at skyvector.com

Satellite Image

Google Maps Satellite view

 

Copyright © 2004-2019 Karl L. Swartz. All rights reserved.
The Great Circle Mapper name and logo are trademarks of the Great Circle Mapper.
All other trademarks mentioned herein belong to their respective owners.
Please see credits for attibutions and further copyright information.

  Follow gcmap on Facebook Follow gcmap on Twitter Follow gcmap on Google+ GCmap on LinkedIn

hCard Microformat

Geo Microformat